Weather History for Yuma MCAS, AZ

Change the Weather History Date:

Tuesday, November 20, 2012

  Actual Average Record
Temperature  
Mean Temperature 67 °F 64 °F  
Max Temperature 82 °F 76 °F 88 °F (2006)
Min Temperature 51 °F 52 °F 32 °F (1886)
Degree Days  
Heating Degree Days 0 3  
Month to date heating degree days 22 25  
Since 1 July heating degree days 22 27  
Cooling Degree Days 2 2  
Month to date cooling degree days 94 79  
Year to date cooling degree days 4884 4641  
Growing Degree Days 17 (Base 50)    
Moisture  
Dew Point 39 °F    
Average Humidity 43    
Maximum Humidity 68    
Minimum Humidity 18    
Precipitation  
Precipitation 0.00 in 0.01 in 0.81 in (1883)
Month to date precipitation T 0.12  
Year to date precipitation 2.37 2.95  
Sea Level Pressure  
Sea Level Pressure 30.05 in    
Wind  
Wind Speed 2 mph (North)    
Max Wind Speed 9 mph    
Max Gust Speed 14 mph    
Visibility 10 miles    
Events      
T = Trace of Precipitation, MM = Missing Value Source: NWS Daily Summary

Daily Weather History Graph

Daily Weather History Graph

Search for Another Location

Airport:

Trip Planner

Search our weather history database for the weather conditions in past years. The results will help you decide how hot, cold, wet, or windy it might be!

Date:

Astronomy

Nov. 20, 2012 Rise Set
Actual Time 7:13 AM MST 5:34 PM MST
Civil Twilight 6:46 AM MST 6:01 PM MST
Nautical Twilight 6:17 AM MST 6:31 PM MST
Astronomical Twilight 5:47 AM MST 7:00 PM MST
Moon 1:01 PM MST (11/20) No Moon Set
Length of Visible Light 11h 14m
Length of Day
10h 21m
First Quarter, 52% of the Moon is Illuminated
Nov 20
First Quarter
Nov 28
Full
Dec 6
Last Quarter
Dec 13
New
Dec 19
First Quarter

Hourly Weather History & Observations

Time (MST) Temp. Dew Point Humidity Pressure Visibility Wind Dir Wind Speed Gust Speed Precip Events Conditions
12:55 AM 59.0 °F 41.0 °F 51% 30.12 in 10.0 mi Calm Calm - N/A   Clear
1:55 AM 55.9 °F 39.9 °F 55% 30.11 in 10.0 mi Calm Calm - N/A   Clear
2:55 AM 55.9 °F 39.9 °F 55% 30.10 in 10.0 mi NNE 3.5 mph - N/A   Clear
3:55 AM 55.0 °F 39.9 °F 57% 30.09 in 10.0 mi Calm Calm - N/A   Clear
4:55 AM 54.0 °F 39.9 °F 59% 30.09 in 10.0 mi Calm Calm - N/A   Clear
5:55 AM 52.0 °F 41.0 °F 66% 30.09 in 10.0 mi WSW 3.5 mph - N/A   Clear
6:55 AM 53.1 °F 41.0 °F 64% 30.11 in 10.0 mi Calm Calm - N/A   Clear
7:55 AM 55.0 °F 41.0 °F 59% 30.12 in 10.0 mi Calm Calm - N/A   Partly Cloudy
8:55 AM 62.1 °F 39.9 °F 44% 30.12 in 7.0 mi NNE 4.6 mph - N/A   Partly Cloudy
9:55 AM 66.9 °F 39.0 °F 36% 30.12 in 10.0 mi NNE 4.6 mph - N/A   Partly Cloudy
10:55 AM 73.0 °F 39.9 °F 30% 30.11 in 10.0 mi NNE 4.6 mph - N/A   Partly Cloudy
11:55 AM 77.0 °F 37.0 °F 24% 30.08 in 10.0 mi NNE 5.8 mph - N/A   Partly Cloudy
12:55 PM 79.0 °F 36.0 °F 21% 30.04 in 10.0 mi Variable 5.8 mph - N/A   Partly Cloudy
1:55 PM 81.0 °F 35.1 °F 19% 30.01 in 10.0 mi North 5.8 mph - N/A   Partly Cloudy
2:55 PM 82.0 °F 35.1 °F 18% 29.99 in 10.0 mi Calm Calm - N/A   Partly Cloudy
3:55 PM 81.0 °F 34.0 °F 18% 29.97 in 10.0 mi Calm Calm - N/A   Partly Cloudy
4:55 PM 81.0 °F 35.1 °F 19% 29.97 in 10.0 mi NNE 4.6 mph - N/A   Partly Cloudy
5:55 PM 77.0 °F 36.0 °F 23% 29.97 in 10.0 mi Calm Calm - N/A   Partly Cloudy
6:55 PM 69.1 °F 39.0 °F 33% 29.98 in 10.0 mi Calm Calm - N/A   Clear
7:55 PM 66.0 °F 39.9 °F 38% 29.99 in 10.0 mi West 4.6 mph - N/A   Clear
8:55 PM 64.9 °F 39.0 °F 39% 29.99 in 10.0 mi Calm Calm - N/A   Clear
9:55 PM 63.0 °F 39.9 °F 43% 30.00 in 10.0 mi Calm Calm - N/A   Clear
10:55 PM 60.1 °F 39.9 °F 47% 30.00 in 10.0 mi Calm Calm - N/A   Clear
11:55 PM 57.0 °F 41.0 °F 55% 29.99 in 10.0 mi Calm Calm - N/A   Clear